Tracking 30696 objects as of 16-Jun-2025
HD Live streaming from Space Station
objects crossing your sky now

COSMOS 970 DEB

Track COSMOS 970 DEB now!
10-day predictions


NORAD ID: 14907
Int'l Code: 1977-121BL
Perigee: 1,002.0 km
Apogee: 1,120.6 km
Inclination: 66.0 °
Period: 106.3 minutes
Semi major axis: 7432 km
RCS: 0.0067 m2 (small)
Launch date: December 21, 1977
Source: Commonwealth of Independent States (former USSR) (CIS)
Launch site: TYURATAM MISSILE AND SPACE COMPLEX (TTMTR)

Note: This is SATELLITE DEBRIS
Your satellite tracking list
Your tracking list is empty




NASA's NSSDC Master Catalog

Two Line Element Set (TLE):
1 14907U 77121BL  25166.01671352  .00000163  00000-0  33954-3 0  9991
2 14907  66.0263 138.0736 0079795 266.4461 155.7691 13.54932486151613
Source of the keplerian elements: AFSPC